Flag for Reunion (French) Weather past 2 weeks in Saint-Pierre, Reunion (French)

Now
77 °F

Warm.


Feels Like: 79 °F
Forecast: 80 / 86 °F
Wind: 6 mph from North

Location: Saint Airport-Pierre


UV Index: 7 (High)

Visibility: N/A


Pressure: 29.98 "Hg

Humidity: 69%

Dew point: 66 °F

Location of Saint-PierreLocation

Historic Weather in Saint-Pierre

°F

Saint-Pierre temperature yesterday

Maximum temperature yesterday: 84 °F (at 10:30 AM)
Minimum temperature yesterday: 75 °F (at 12:30 AM)
Average temperature yesterday: 79 °F

Past Weeks' High & Low Weather Summary

 TemperatureHumidityPressure
High86 °F (Apr 2, 1:30 PM)94% (Apr 10, 2:00 AM)30.12 "Hg (Apr 10, 2:00 AM)
Low66 °F (Apr 10, 1:30 AM)32% (Apr 6, 9:00 AM)29.74 "Hg (Apr 7, 3:00 PM)
Average77 °F68%29.96 "Hg
* Reported Apr 2 7:00 AM — Apr 17 7:00 AM, Saint-Pierre, Weather by CustomWeather, © 2014

Note: Actual official high and low records may vary slightly from our data, if they occured in-between our weather recording intervals... More about our weather records

Advertising

Historic Weather Conditions — Data for Previous 24 hours

 ConditionsComfort  
Time TempWeatherWind HumidityBarometerVisibility
7:00 AM
Apr 17
75 °FMild.7 mph74%29.98 "HgN/A
6:30 AM75 °FMild.8 mph69%29.98 "HgN/A
6:00 AM75 °FMild.8 mph74%29.98 "HgN/A
5:30 AM75 °FPassing clouds.7 mph74%29.98 "HgN/A
5:00 AM75 °FPassing clouds.7 mph74%29.98 "HgN/A
4:30 AM75 °FPassing clouds.7 mph74%29.95 "HgN/A
4:00 AM75 °FMild.7 mph78%29.95 "HgN/A
3:30 AM75 °FMild.7 mph78%29.95 "HgN/A
3:00 AM75 °FMild.6 mph78%29.95 "HgN/A
2:30 AM75 °FMild.6 mph83%29.98 "HgN/A
2:00 AM75 °FMild.7 mph83%29.98 "HgN/A
1:30 AM75 °FMild.7 mph83%29.98 "HgN/A
1:00 AM75 °FMild.6 mph83%29.98 "HgN/A
12:30 AM75 °FPassing clouds.7 mph83%29.98 "HgN/A
12:00 AM75 °FPassing clouds.6 mph83%30.01 "HgN/A
11:30 PM
Apr 16
77 °FPassing clouds.5 mph79%30.01 "HgN/A
11:00 PM77 °FPassing clouds.5 mph79%30.01 "HgN/A
10:30 PM77 °FPassing clouds.6 mph79%30.01 "HgN/A
10:00 PM79 °FOvercast.5 mph79%30.01 "HgN/A
9:30 PM77 °FOvercast.5 mph83%30.01 "HgN/A
9:00 PM77 °FOvercast.5 mph89%30.01 "HgN/A
8:30 PM79 °FOvercast.5 mph84%29.98 "HgN/A
8:00 PM77 °FPassing clouds.6 mph89%29.98 "HgN/A
7:30 PM79 °FPartly cloudy.5 mph84%29.98 "HgN/A
7:00 PM79 °FPartly cloudy.3 mph84%29.98 "HgN/A
6:30 PM79 °FOvercast.2 mph84%29.95 "HgN/A
6:00 PM81 °FPassing clouds.2 mph79%29.95 "HgN/A
5:00 PM82 °FPartly sunny.3 mph74%29.95 "HgN/A
4:30 PM82 °FPartly sunny.3 mph70%29.95 "HgN/A
4:00 PM82 °FPartly sunny.6 mph70%29.92 "HgN/A
3:30 PM82 °FOvercast.7 mph70%29.95 "HgN/A
3:00 PM82 °FOvercast.7 mph70%29.92 "HgN/A
2:30 PM84 °FOvercast.7 mph66%29.92 "HgN/A
2:00 PM84 °FOvercast.7 mph70%29.92 "HgN/A
1:30 PM84 °FOvercast.6 mph66%29.92 "HgN/A
1:00 PM84 °FPartly sunny.6 mph70%29.95 "HgN/A
10:30 AM84 °FWarm.6 mph66%29.98 "HgN/A
10:00 AM82 °FWarm.6 mph70%29.98 "HgN/A
9:30 AM82 °FWarm.5 mph66%29.98 "HgN/A
9:00 AM82 °FWarm.5 mph70%29.98 "HgN/A
8:30 AM82 °FWarm.3 mph66%29.98 "HgN/A
8:00 AM81 °FWarm.5 mph66%29.98 "HgN/A
Weather by CustomWeather, © 2014

See weather overview